カタログに戻る

STARLINK-30822

運用中通信VLEO
NORAD 58193·PAYLOAD·🇺🇸 United States

打ち上げ Oct 30, 2023 から Cape Canaveral Space Force Station

Loading…

次のパス (今後24時間)

TLE

最新Source: CelesTrak SupGP

元期: Sep 15, 2026, 01:35 UTC

1 58193C 23167U   26258.06645833  .00051228  00000+0  17248-2 0  2582
2 58193  43.0015 153.7842 0003918 235.7706 323.0040 15.29921904    17

AllMySatでSTARLINK-30822をリアルタイム追跡

Download on the App Store